User: anonymous
Location: Columbia
(38.9520°N, 92.3340°W)
Time: 23:00:52
(UTC-05:00)
Language:

SJ-11-01 - Orbit

View from above orbital plane
View from above orbital plane
View from above satellite
View from above satellite

Ground track
Ground track

The orbit data is extracted from the following two-line orbital elements,

1 36088U 09061A   14273.85183216  .00000578  00000-0  12936-3 0  4430
2 36088 098.0241 318.9104 0012504 107.2248 253.0325 14.60145229260151
Epoch (UTC): 30 September 2014 20:26:38
Eccentricity: 0.0012504
inclination: 98.0241°
perigee height: 684 km
apogee height: 701 km
right ascension of ascending node: 318.9104°
argument of perigee: 107.2248°
revolutions per day: 14.60145229
mean anomaly at epoch: 253.0325°
orbit number at epoch: 26015

The dashed part of the orbit path shows where the satellite is in the earth's shadow,  

DLR